[[{"header":{"parameterUnit":"m.s-1","parameterCategory":1,"la1":30.2992,"la2":30.254,"lo1":-89.0895,"lo2":-89.0443,"dy":0.0025,"dx":0.0025,"nx":19,"ny":19,"refTime":"2026-03-18T03:00:00:Z","depth":0,"parameterNumber":2,"parameterNumberName":"U-component_of_WINDS"},"data":[0,0,0,0.3498,0.3498,0.3509,0.3509,0.3521,0.3521,0,0,0,0,0,0,0,0,0,0,0,0.3493,0.3493,0.3498,0.3498,0.3509,0.3509,0.3521,0.3521,0,0,0,0,0,0,0,0,0,0,0,0.3493,0.3493,0.3493,0.3498,0.3509,0.3509,0.3521,0.3513,0,0,0,0,0,0,0,0,0,0,0.3504,0.3497,0.3493,0.3493,0.3498,0.3508,0.3509,0.3513,0.3514,0.3515,0,0.3515,0,0.3518,0.3522,0.3522,0,0,0,0.3499,0.3496,0.3501,0.3493,0.3498,0.3508,0.3504,0.3514,0.3514,0.3516,0.3515,0.3516,0.3518,0.3522,0.3522,0.3524,0.3524,0,0,0.3499,0.3494,0.35,0.3501,0.3499,0.3504,0.3505,0.3514,0.3513,0.3515,0.3516,0.3519,0.3522,0.3522,0.3524,0.3524,0,0,0,0.3496,0.3494,0.3498,0.3501,0.3503,0.3504,0.3505,0.3513,0.3514,0.3516,0.3519,0.3522,0.3522,0.3524,0.3524,0.3516,0,0,0,0.3496,0.3492,0.3497,0.3495,0.3503,0.3508,0.3503,0.3514,0.3515,0.3519,0.3522,0.3522,0.3524,0.3524,0.3517,0.3514,0,0,0,0.3493,0.3492,0.3493,0.3494,0.3499,0.3508,0.351,0.3514,0.3516,0.3522,0.3522,0.3524,0.3524,0.3517,0.3514,0.3513,0,0,0,0.3488,0.3485,0.3492,0.349,0.3498,0.3503,0.351,0.3513,0.3517,0.3522,0.3524,0.3524,0.3517,0.3514,0.3514,0.3512,0.351,0,0,0.3482,0.3484,0.3483,0.349,0.3492,0.3502,0.3503,0.351,0.3516,0.3521,0.3521,0.3517,0.3514,0.3513,0.3505,0.3504,0,0,0,0.348,0.3479,0.3481,0.3484,0.349,0.3496,0.3504,0.3507,0.3512,0.3517,0.3516,0.3515,0.3515,0.3514,0.3513,0.3514,0.3523,0.3523,0.3523,0.3463,0.347,0.347,0.3479,0.3482,0.3492,0.3495,0.3502,0.3507,0.3507,0.3509,0.3502,0.3502,0.3501,0.3501,0.3508,0.3508,0.3508,0.3508,0.3454,0.3454,0.3464,0.3467,0.3475,0.3478,0.3488,0.3492,0.3497,0.3501,0.3502,0.3506,0.3499,0.35,0.3508,0.3508,0.3508,0.3508,0.3508,0.3443,0.3445,0.3449,0.3456,0.3461,0.3471,0.3475,0.3483,0.349,0.349,0.3493,0.3493,0.3495,0.3491,0.3491,0.3491,0.3491,0.3491,0.3491,0.343,0.3436,0.3438,0.3446,0.345,0.3457,0.3468,0.3473,0.348,0.3485,0.3485,0.3492,0.3497,0.3499,0.3491,0.3491,0.3491,0.3491,0.3491,0.3418,0.3423,0.3426,0.3431,0.3442,0.3447,0.3457,0.3466,0.3471,0.3473,0.3481,0.3484,0.3487,0.3488,0.3489,0.3479,0.3479,0.3479,0.3479,0.3409,0.3412,0.3419,0.3425,0.3433,0.3443,0.3449,0.3458,0.3469,0.3473,0.3476,0.3478,0.3479,0.3482,0.3483,0.3484,0.3473,0.3473,0.3473,0.3403,0.3407,0.3409,0.342,0.343,0.3439,0.3445,0.3453,0.3466,0.3473,0.3477,0.3477,0.3481,0.3482,0.3487,0.3488,0.3491,0,0]},{"header":{"parameterUnit":"m.s-1","parameterCategory":1,"la1":30.2992,"la2":30.254,"lo1":-89.0895,"lo2":-89.0443,"dy":0.0025,"dx":0.0025,"nx":19,"ny":19,"refTime":"2026-03-18T03:00:00:Z","depth":0,"parameterNumber":3,"parameterNumberName":"V-component_of_WINDS"},"data":[0,0,0,-4.1083,-4.1087,-4.1244,-4.1245,-4.1449,-4.145,0,0,0,0,0,0,0,0,0,0,0,-4.1041,-4.1043,-4.1083,-4.1087,-4.1244,-4.1245,-4.1448,-4.145,0,0,0,0,0,0,0,0,0,0,0,-4.1041,-4.1042,-4.1044,-4.1088,-4.1244,-4.1245,-4.1448,-4.1328,0,0,0,0,0,0,0,0,0,0,-4.1174,-4.1141,-4.1042,-4.1045,-4.1089,-4.1244,-4.1245,-4.1322,-4.1335,-4.138,0,-4.1423,0,-4.144,-4.1465,-4.1465,0,0,0,-4.1083,-4.1129,-4.1168,-4.1045,-4.109,-4.1244,-4.1172,-4.1329,-4.1344,-4.1397,-4.1426,-4.1433,-4.1443,-4.1466,-4.1467,-4.1742,-4.1743,0,0,-4.1074,-4.1071,-4.1158,-4.1178,-4.1157,-4.1167,-4.1177,-4.1338,-4.1368,-4.1426,-4.1438,-4.1447,-4.1467,-4.1469,-4.1741,-4.1742,0,0,0,-4.1052,-4.1066,-4.11,-4.117,-4.1198,-4.1172,-4.1183,-4.1361,-4.1372,-4.144,-4.1449,-4.1469,-4.1471,-4.1739,-4.1741,-4.1811,0,0,0,-4.1047,-4.1053,-4.1096,-4.1096,-4.1195,-4.1282,-4.1202,-4.1361,-4.1379,-4.1448,-4.1469,-4.1473,-4.1738,-4.174,-4.1806,-4.1843,0,0,0,-4.1029,-4.105,-4.1075,-4.1096,-4.1163,-4.1279,-4.13,-4.1365,-4.1385,-4.1465,-4.1474,-4.1736,-4.174,-4.1801,-4.1836,-4.1914,0,0,0,-4.1009,-4.1134,-4.1076,-4.1219,-4.1162,-4.1322,-4.1299,-4.1418,-4.1495,-4.147,-4.1738,-4.1741,-4.1799,-4.1831,-4.1909,-4.1978,-4.2008,0,0,-4.1165,-4.1153,-4.1237,-4.119,-4.136,-4.1299,-4.1478,-4.1551,-4.156,-4.168,-4.1687,-4.1807,-4.1835,-4.1913,-4.2175,-4.2198,0,0,0,-4.1286,-4.1346,-4.1392,-4.1466,-4.1526,-4.1579,-4.1625,-4.1652,-4.1754,-4.1622,-4.1858,-4.1874,-4.192,-4.1953,-4.1973,-4.2011,-4.1757,-4.1757,-4.1756,-4.15,-4.1507,-4.1646,-4.1672,-4.1744,-4.1791,-4.1849,-4.1892,-4.1877,-4.1933,-4.1968,-4.2126,-4.2165,-4.218,-4.222,-4.2006,-4.2007,-4.2007,-4.2007,-4.1727,-4.1813,-4.1791,-4.1918,-4.1924,-4.203,-4.2079,-4.2065,-4.2162,-4.2101,-4.2141,-4.2071,-4.2205,-4.224,-4.2012,-4.2012,-4.2011,-4.201,-4.201,-4.1867,-4.1909,-4.1941,-4.2049,-4.213,-4.2151,-4.2247,-4.2249,-4.225,-4.2291,-4.2327,-4.2325,-4.2323,-4.2308,-4.2309,-4.2309,-4.231,-4.231,-4.2311,-4.1998,-4.2032,-4.2113,-4.2188,-4.2235,-4.2297,-4.2345,-4.2391,-4.2442,-4.2435,-4.2435,-4.2413,-4.2218,-4.2168,-4.2319,-4.2318,-4.2316,-4.2316,-4.2315,-4.2223,-4.2172,-4.2298,-4.2346,-4.2432,-4.2512,-4.2514,-4.2607,-4.2645,-4.2691,-4.2662,-4.2518,-4.2504,-4.2489,-4.2447,-4.2661,-4.2661,-4.2661,-4.2661,-4.2339,-4.2333,-4.2461,-4.2537,-4.2612,-4.2626,-4.2765,-4.2803,-4.2833,-4.2857,-4.2826,-4.2772,-4.2756,-4.2752,-4.2731,-4.2691,-4.2963,-4.2963,-4.2964,-4.2476,-4.2478,-4.2597,-4.2628,-4.2696,-4.2753,-4.2883,-4.2968,-4.2993,-4.2976,-4.2874,-4.2862,-4.2774,-4.2745,-4.2724,-4.269,-4.2619,0,0]}]]